Location: Vinland
(47.7731°N, 122.6974°W)
Time: 04:45:44
(UTC+00:00)

Vanguard 2 - Pass Details

Date: 19 April 2024
Orbit: 552 x 2914 km, 32.9° (Epoch: 25 May)

Event Time Altitude Azimuth Distance (km) Brightness Sun altitude
Exits shadow 11:08:00 23° 222° (SW) 4,540 10.8 -18.8°
Maximum altitude 11:18:32 45° 168° (SSE) 3,632 10.7 -17.5°
Drops below altitude 10° 11:33:48 10° 104° (ESE) 5,345 12.3 -15.5°
Sets 11:37:48 0° 98° (E) 6,133 12.8 -15.0°
